www.pogodaiklimat.ru

Погода и климат >> Архив погоды >> Мадагаскар >> Анциранана


ПОГОДА в Анциранане

  • Прогноз погоды в Анциранане
  • Монитор погоды в Анциранане

АРХИВ ПОГОДЫ в Анциранане

Время (UTC), дата Ветер
(напр.,м/с)
 
Видим.   Явления Облачность Т
(С)
Тd
(С)
f
(%)
Тe
(С)
Тes
(С)
Комфортность P
(гПа)
Po
(гПа)
Тmin
(С)
Tmax
(С)
R
(мм)
R24
(мм)
S
(см)
09 11.07 ЮВ 6 40 км 3/3 600 м
[Cu Sc Ci sp]
+29.8 +16.9 46 +33 +37 душно 1014.0 1002.1
12 11.07 ЮВ 4 40 км 5/3 600 м
[Cu Sc Ci sp]
+29.0 +17.1 49 +33 +35 очень
душно
1012.7 1000.8
15 11.07 ЮВ 5 30 км 1/1 600 м
[Cu Sc Ci sp]
+25.4 +16.4 57 +29 +29 душно 1013.9 1001.9 +30.4
18 11.07 Ю 4 30 км 1/1 1200 м
[Sc]
+23.0 +18.3 75 +29 +29 очень
душно
1015.6 1003.6 +30.4
00 12.07 Ю 6 30 км 3/1 1200 м
[Sc Ci sp]
+21.4 +17.2 77 +25 +25 комфорт 1014.7 1002.7
03 12.07 Ю 6 40 км 3/1 600 м
[Cu Sc Ci sp]
+21.2 +15.9 72 +25 +25 комфорт 1015.0 1003.0
06 12.07 ЮВ 8 40 км 1/1 600 м
[Cu hum Ci sp]
+26.0 +16.4 55 +29 +31 душно 1016.4 1004.4 +21.0 +30.4
09 12.07 ЮВ 7 40 км 1/1 600 м
[Cu hum Ci sp]
+28.8 +15.0 43 +31 +35 жарко 1015.1 1003.1
12 12.07 ЮВ 8 40 км 3/3 600 м
[Cu Sc Ci sp]
+28.0 +16.2 49 +31 +32 душно 1013.3 1001.4
15 12.07 ЮВ 5 40 км 1/1 600 м
[Cu Sc Ci sp]
+24.2 +17.2 65 +28 +28 душно 1015.1 1003.1 +29.6
18 12.07 ЮВ 8 30 км 1/1 1200 м
[Sc]
+22.7 +14.8 61 +26 +26 жарко 1017.5 1005.5 +29.6
00 13.07 ЮВ 7 30 км 1/1 1200 м
[Sc Ci sp]
+20.5 +15.0 71 +23 +23 комфорт 1016.8 1004.8
03 13.07 ЮВ 6 40 км 1/1 1200 м
[Sc Ci sp]
+20.2 +13.2 64 +22 +22 комфорт 1017.4 1005.3
06 13.07 Ю 9 40 км 1/1 600 м
[Cu Sc]
+26.4 +12.2 41 +28 +28 жарко 1018.6 1006.6 +20.4 +29.6
09 13.07 ЮВ 7 40 км 1/1 600 м
[Cu hum]
+29.0 +12.3 36 +30 +34 жарко 1017.3 1005.3
12 13.07 ЮВ 6 40 км 1/1 600 м
[Cu hum]
+29.0 +15.0 43 +32 +34 душно 1015.5 1003.6
15 13.07 ЮВ 7 30 км 3/1 600 м
[Cu Sc]
+24.2 +16.4 62 +28 +28 душно 1017.2 1005.1 +30.0
18 13.07 ЮВ 5 30 км 3/3 1200 м
[Sc]
+22.5 +17.2 72 +27 +27 душно 1019.1 1007.0 +30.0
00 14.07 ЮВ 6 30 км 1/1 1200 м
[Sc]
+20.2 +16.6 80 +23 +23 комфорт 1017.5 1005.6
03 14.07 ЮВ 5 30 км 3/3 600 м
[Cu Sc]
+20.4 +13.6 65 +23 +23 комфорт 1018.3 1006.2
06 14.07 Ю 6 40 км 1/1 600 м
[Cu Sc]
+26.2 +13.0 44 +28 +31 жарко 1018.9 1006.9 +19.8 +30.0
09 14.07 ЮВ 7 40 км 3/3 600 м
[Cu Sc Ci sp]
+29.0 +13.7 39 +31 +34 жарко 1017.7 1005.7
12 14.07 ЮВ 9 40 км 3/3 600 м
[Cu Sc Ci sp]
+27.2 +14.7 46 +30 +30 душно 1015.6 1003.6
15 14.07 ЮВ 13
{17}
30 км 6/6 600 м
[Cu Sc]
+24.0 +13.0 50 +26 +26 жарко 1016.8 1004.7 +29.0
18 14.07 ЮВ 6 30 км 1/1 600 м
[Cu Sc]
+22.2 +13.3 57 +25 +25 комфорт 1018.4 1006.4 +29.0
00 15.07 Ю 6 30 км 1/1 1200 м
[Sc]
+20.8 +12.8 60 +23 +23 комфорт 1016.9 1004.9
03 15.07 Ю 7 30 км 1/1 600 м
[Cu Sc]
+20.6 +12.1 58 +22 +22 комфорт 1016.8 1004.7
06 15.07 ЮВ 11
{16}
40 км 1/1 600 м
[Cu hum]
+25.4 +11.2 41 +27 +27 жарко 1017.6 1005.6 +20.5 +29.0
09 15.07 ЮВ 12
{17}
40 км 3/3 600 м
[Cu hum Ci sp]
+28.0 +12.4 38 +29 +29 жарко 1017.1 1005.1
12 15.07 ЮВ 12
{17}
40 км 1/1 600 м
[Cu hum Ci sp]
+27.0 +13.6 44 +29 +29 жарко 1015.6 1003.6
15 15.07 ЮВ 12
{17}
30 км 3/3 600 м
[Cu Sc Ci sp]
+23.6 +15.4 60 +27 +27 жарко 1017.1 1005.1 +28.5
18 15.07 ЮВ 9 30 км 1/1 1200 м
[Sc]
+22.2 +14.4 61 +25 +25 комфорт 1018.8 1006.8 +28.5
00 16.07 ЮВ 10 30 км 1/1 1200 м
[Sc]
+20.7 +14.0 65 +23 +23 комфорт 1018.1 1006.1
03 16.07 ЮВ 7 40 км 3/1 1200 м
[Sc Ci sp]
+20.5 +13.4 64 +22 +22 комфорт 1018.5 1006.4
06 16.07 ЮВ 9 40 км 1/1 600 м
[Cu Sc As op]
+28.5 +20.5 62 +28 +29 жарко 1019.6 1007.6 +20.5 +28.5
09 16.07 Ю 4 40 км 1/1 600 м
[Cu Sc]
+28.0 +13.7 41 +30 +39 жарко 1018.9 1006.9
12 16.07 ЮВ 11 40 км 3/3 600 м
[Cu Sc Ci sp]
+28.0 +15.0 45 +31 +31 душно 1017.1 1005.1
15 16.07 Ю 9 30 км 4/4 600 м
[Cu Sc Ci sp]
+22.2 +17.2 73 +27 +27 душно 1018.5 1006.4 +29.4
18 16.07 ЮВ 8 30 км осадки на расстоянии 6/6 600 м
[Cu Sc]
+22.2 +17.9 77 +27 +27 душно 1019.3 1007.2 +29.4
00 17.07 ЮВ 8 30 км 6/6 600 м
[Cu Sc]
+20.0 +17.1 83 +22 +22 комфорт 1018.8 1006.8
03 17.07 ЮВ 8 30 км 5/5 600 м
[]
+20.0 +17.1 83 +22 +22 комфорт 1019.0 1006.8
06 17.07 Ю 11
{16}
40 км 5/5 600 м
[Cu Sc]
+24.2 +15.7 59 +27 +27 жарко 1019.7 1007.6 +19.6 +29.4
09 17.07 Ю 11
{16}
40 км 5/5 600 м
[Cu Sc]
+28.0 +15.0 45 +31 +31 душно 1018.6 1006.6
12 17.07 Ю 11
{16}
40 км 8/8 600 м
[Cu Sc]
+26.0 +16.0 54 +29 +29 душно 1017.8 1005.8
15 17.07 ЮВ 6 30 км 6/6 600 м
[Cu Sc]
+23.6 +15.1 59 +26 +26 жарко 1018.6 1006.6 +28.5
18 17.07 ЮВ 9 30 км 1/1 600 м
[Cu Sc]
+22.0 +15.0 64 +25 +25 комфорт 1019.7 1007.6 +28.5
00 18.07 ЮВ 7 30 км 3/3 1200 м
[Sc]
+20.4 +10.6 53 +22 +22 комфорт 1017.9 1005.8
03 18.07 Ю 7 40 км 4/4 600 м
[Cu Sc]
+21.6 +9.9 47 +23 +23 комфорт 1017.9 1005.8
06 18.07 Ю 11
{16}
40 км 3/3 600 м
[Cu Sc]
+25.5 +13.9 49 +28 +28 жарко 1017.4 1005.4 +20.0 +28.5

 

Местоположение метеостанции Анциранана (Мадагаскар): широта -12.35 долгота 49.30 высота над уровнем моря 105 м.

В архиве по умолчанию представлена погода в Анциранане за последнюю неделю. Архивные данные за месяц целиком и за предыдущие месяцы, начиная с января 2011 года, Вы можете получить, выбрав интересующий диапазон дат из раскрывающегося списка и нажав кнопку "Ввод!".


*Определитесь, кто Вы:
робот инопланетянин человек

Внимание! Время в таблицах - всемирное. Для получения местного времени необходимо прибавить поправку, которая равна 3 ч.

Смотрите также архив погоды в соседних городах и на ближайших метеорологических станциях:

Погода в Аэропорту Fascene (Мадагаскар) (151 км)
Погода в Самбаве (Мадагаскар) (234 км)
Погода на Острове Глорьёз (Реюньон) (247 км)
Погода в Анталахе (Мадагаскар) (300 км)
Погода в Анцухихи (Мадагаскар) (316 км)
Погода в Дзаудзи (Коморские Острова) (439 км)
Погода в Махадзанге (Мадагаскар) (487 км)
Погода на Нуси Бураха (Мадагаскар) (529 км)
Погода в Амбоайтзилаозане (Мадагаскар) (594 км)
Погода в Туамасине (Мадагаскар) (641 км)

Пояснения к столбцам:

Ветер - указаны скорость ветра в м/с - средняя за 10 мин, порывы в срок и между сроками (в фигурных скобках) и направление, откуда дует ветер: С - северный, СВ - северо-восточный, В - восточный, ЮВ - юго-восточный, Ю - южный, ЮЗ - юго-западный, З - западный, СЗ - северо-западный.
Видимость - горизонтальная дальность видимости в метрах или километрах. При видимости от 1 до 10 км при отсутствии осадков обычно наблюдается дымка, при ухудшении видимости до 1 км и менее - туман. В сухую погоду видимость может ухудшаться дымом, пылью или мглою.
Явления - указаны атмосферные явления, наблюдавшиеся в срок или в последний час перед сроком; фигурными скобками обозначены явления, наблюдавшиеся между сроками (за 1-3 часа до срока); квадратными скобками обозначены град или гололедные отложения с указанием их диаметра в мм.
Облачность - указаны через наклонную черту общая и нижняя облачность в баллах и высота нижней границы облаков в метрах; квадратными скобками обозначены формы облаков: Ci - перистые, Cs - перисто-слоистые, Cc - перисто-кучевые, Ac - высококучевые, As - высокослоистые, Sc - слоисто-кучевые, Ns - слоисто-дождевые, Cu - кучевые, Cb - кучево-дождевые. Подробнее классификацию облаков см. в Атласе облаков (PDF).
T - Температура воздуха - температура, измеренная на высоте 2 м над землей.
Td - Температура точки росы - температура, при понижении до которой содержащийся в воздухе водяной пар достигнет насыщения.
f - Относительная влажность воздуха - влажноcть воздуха, измеренная на высоте 2 м над землей.
Te - Эффективная температура - температура, которую ощущает одетый по сезону человек в тени. Характеристика душности погоды. При расчете учитывается влияние влажности воздуха и скорости ветра на теплоощущения человека.
Tes - Эффективная температура на солнце - температура, которую ощущает человек, с поправкой на солнечный нагрев. Характеристика знойности погоды. Зависит от высоты солнца над горизонтом, облачности и скорости ветра. Ночью, в пасмурную погоду, а также при ветре 12 м/с и более поправка равна нулю.
P - Атмосферное давление - приведенное к уровню моря атмосферное давление.
Po - Атмосферное давление - измеренное на уровне метеостанции атмосферное давление.
Tmin - Минимальная температура - минимум температуры воздуха на высоте 2 м над землей.
Tmax - Максимальная температура - максимум температуры воздуха на высоте 2 м над землей.
R - Количество осадков - Количество выпавших осадков за период времени, мм. При наведении курсора мыши на число - период времени, за который выпало указанное количество осадков.
R24 - Количество осадков - Количество выпавших осадков за 24 часа, мм.
S - Снежный покров - Высота снежного покрова, см. При наведении курсора мыши на число - состояние снежного покрова и степень покрытия местности в баллах.